Regional Weather Roundup
Issued by NWS

Home | Current Version | Previous Version | Text Only | Print | Product List | Glossary On
Versions: 1 2 3 4 5 6 7 8 9 10 11 12 13 14 15 16 17 18 19 20 21 22 23 24 25 26 27 28 29 30 31 32 33 34 35 36 37 38 39 40 41 42 43 44 45 46 47 48 49 50
000
ASCA42 TJSJ 220210
RWRPR
PUERTO RICO/U.S. VIRGIN ISLANDS HOURLY WEATHER ROUNDUP
NATIONAL WEATHER SERVICE SAN JUAN PR
1000 PM AST MON AUG 21 2017

PRZ001>002-007>008-010-220300-
PUERTO RICO

CITY           SKY/WX    TMP DP  RH WIND       PRES   REMARKS
SAN JUAN LMM   PTCLDY    82  75  78 E7        30.04R
CEIBA          CLEAR     82  75  78 NE6       30.06R
$$

VIZ001>002-220300-
U.S. VIRGIN ISLANDS

CITY           SKY/WX    TMP DP  RH WIND       PRES   REMARKS
CHARLOTTE AMA  CLEAR     82  77  83 E8        30.02S HX  91
CHRISTIANSTED  PTCLDY    82  75  78 NE10      30.03R
$$

HOURLY WEATHER ROUNDUP FOR THE NEWS MEDIA

CITY           SKY/WX    TMP DP  RH WIND       PRES   REMARKS
ORLANDO        CLEAR     80  75  84 E6        30.14R
NEW YORK       CLOUDY    77  73  87 SW10      30.12S
NEWARK         PTCLDY    79  70  74 SW9       30.11S
CHICAGO        CLOUDY    79  66  64 SW7G16    29.95F
HARTFORD       CLEAR     70  63  78 SW7       30.10S
BOSTON         CLEAR     77  64  64 SW13      30.07S
DALLAS         PTCLDY    89  70  53 SE14      30.02R HX  94
PHILADELPHIA   CLOUDY    79  72  79 S6        30.13S
LOS ANGELES    CLEAR     70  62  76 W15       29.95F
WASHINGTON DC  PTCLDY    75  73  93 SW5       30.14S


USA.gov is the U.S. government's official web portal to all federal, state and local government web resources and services.